| time (UTC) | temp F | wind direction | speed knots | gust knots | rain 1hr in | rain 24hr in | rain mn in | humidity % | barometer mb |
| 20260503235838 | 59 | 234 | 0.9 | 1.7 | 0.00 | 0.00 | 0.00 | 30 | 1021.1 |
| 20260503235335 | 60 | 132 | 2.6 | 4.3 | 0.00 | 0.00 | 0.00 | 29 | 1021.2 |
| 20260503234833 | 60 | 244 | 1.7 | 2.6 | 0.00 | 0.00 | 0.00 | 29 | 1021.1 |
| 20260503234330 | 60 | 232 | 2.6 | 2.6 | 0.00 | 0.00 | 0.00 | 28 | 1020.8 |
| 20260503233828 | 60 | 246 | 3.5 | 4.3 | 0.00 | 0.00 | 0.00 | 24 | 1020.8 |
| 20260503233323 | 60 | 225 | 0.9 | 0.9 | 0.00 | 0.00 | 0.00 | 29 | 1020.9 |
| 20260503232820 | 60 | 58 | 4.3 | 7.0 | 0.00 | 0.00 | 0.00 | 26 | 1020.4 |
| 20260503232318 | 61 | 148 | 1.7 | 2.6 | 0.00 | 0.00 | 0.00 | 25 | 1020.4 |
| 20260503231816 | 60 | 196 | 0.9 | 1.7 | 0.00 | 0.00 | 0.00 | 26 | 1020.7 |
| 20260503231312 | 61 | 226 | 0.0 | 0.0 | 0.00 | 0.00 | 0.00 | 26 | 1020.8 |
| 20260503230808 | 61 | 201 | 0.9 | 1.7 | 0.00 | 0.00 | 0.00 | 28 | 1020.8 |
| 20260503230306 | 61 | 229 | 0.0 | 0.9 | 0.00 | 0.00 | 0.00 | 26 | 1020.7 |
| 20260503225803 | 60 | 248 | 1.7 | 1.7 | 0.00 | 0.00 | 0.00 | 27 | 1021.1 |
| 20260503225258 | 60 | 245 | 0.9 | 1.7 | 0.00 | 0.00 | 0.00 | 26 | 1020.7 |
| 20260503224755 | 60 | 238 | 2.6 | 2.6 | 0.00 | 0.00 | 0.00 | 28 | 1020.9 |
| 20260503224253 | 61 | 225 | 0.9 | 0.9 | 0.00 | 0.00 | 0.00 | 27 | 1020.8 |
| 20260503223750 | 60 | 226 | 1.7 | 1.7 | 0.00 | 0.00 | 0.00 | 28 | 1020.8 |
| 20260503223248 | 60 | 236 | 1.7 | 1.7 | 0.00 | 0.00 | 0.00 | 28 | 1021.1 |
| 20260503222743 | 60 | 217 | 0.9 | 0.9 | 0.00 | 0.00 | 0.00 | 27 | 1021.1 |
| 20260503222242 | 60 | 219 | 2.6 | 2.6 | 0.00 | 0.00 | 0.00 | 27 | 1020.9 |
| 20260503221740 | 60 | 38 | 3.5 | 5.2 | 0.00 | 0.00 | 0.00 | 26 | 1021.1 |
| 20260503221237 | 60 | 252 | 4.3 | 5.2 | 0.00 | 0.00 | 0.00 | 27 | 1021.4 |
| 20260503220734 | 61 | 304 | 5.2 | 6.1 | 0.00 | 0.00 | 0.00 | 27 | 1021.4 |
| 20260503220231 | 60 | 33 | 4.3 | 5.2 | 0.00 | 0.00 | 0.00 | 27 | 1021.4 |
| 20260503215727 | 60 | 233 | 1.7 | 1.7 | 0.00 | 0.00 | 0.00 | 27 | 1021.4 |
| 20260503215224 | 60 | 305 | 4.3 | 5.2 | 0.00 | 0.00 | 0.00 | 26 | 1021.7 |
| 20260503214722 | 60 | 242 | 5.2 | 6.1 | 0.00 | 0.00 | 0.00 | 26 | 1021.7 |
| 20260503214219 | 60 | 349 | 7.8 | 9.6 | 0.00 | 0.00 | 0.00 | 25 | 1022.0 |
| 20260503213717 | 60 | 264 | 6.1 | 7.0 | 0.00 | 0.00 | 0.00 | 25 | 1021.7 |
| 20260503213213 | 61 | 228 | 1.7 | 2.6 | 0.00 | 0.00 | 0.00 | 24 | 1021.7 |
| 20260503212711 | 61 | 233 | 0.9 | 0.9 | 0.00 | 0.00 | 0.00 | 25 | 1022.0 |
| 20260503212208 | 61 | 21 | 5.2 | 6.1 | 0.00 | 0.00 | 0.00 | 23 | 1021.8 |
| 20260503211706 | 61 | 316 | 3.5 | 4.3 | 0.00 | 0.00 | 0.00 | 24 | 1021.8 |
| 20260503211202 | 62 | 229 | 6.1 | 7.0 | 0.00 | 0.00 | 0.00 | 25 | 1022.0 |
| 20260503210658 | 62 | 233 | 5.2 | 7.0 | 0.00 | 0.00 | 0.00 | 24 | 1022.3 |
| 20260503210155 | 61 | 318 | 3.5 | 4.3 | 0.00 | 0.00 | 0.00 | 24 | 1022.5 |
| 20260503205650 | 61 | 331 | 2.6 | 2.6 | 0.00 | 0.00 | 0.00 | 24 | 1022.3 |
| 20260503205146 | 61 | 287 | 3.5 | 5.2 | 0.00 | 0.00 | 0.00 | 24 | 1022.3 |
| 20260503204643 | 61 | 229 | 2.6 | 2.6 | 0.00 | 0.00 | 0.00 | 24 | 1022.5 |
| 20260503204141 | 60 | 238 | 3.5 | 4.3 | 0.00 | 0.00 | 0.00 | 24 | 1022.3 |
| 20260503203638 | 61 | 359 | 4.3 | 7.0 | 0.00 | 0.00 | 0.00 | 23 | 1022.5 |
| 20260503203135 | 62 | 354 | 7.8 | 8.7 | 0.00 | 0.00 | 0.00 | 23 | 1022.5 |
| 20260503202632 | 62 | 270 | 3.5 | 4.3 | 0.00 | 0.00 | 0.00 | 22 | 1022.6 |
| 20260503202130 | 61 | 274 | 1.7 | 1.7 | 0.00 | 0.00 | 0.00 | 23 | 1022.7 |
| 20260503201628 | 61 | 227 | 4.3 | 5.2 | 0.00 | 0.00 | 0.00 | 24 | 1022.6 |
| 20260503201125 | 62 | 32 | 3.5 | 5.2 | 0.00 | 0.00 | 0.00 | 23 | 1022.8 |
| 20260503200622 | 62 | 220 | 7.0 | 8.7 | 0.00 | 0.00 | 0.00 | 23 | 1022.7 |
| 20260503200118 | 64 | 10 | 6.1 | 7.8 | 0.00 | 0.00 | 0.00 | 23 | 1022.8 |
| 20260503195615 | 64 | 235 | 3.5 | 4.3 | 0.00 | 0.00 | 0.00 | 23 | 1022.7 |
| 20260503195111 | 63 | 242 | 3.5 | 4.3 | 0.00 | 0.00 | 0.00 | 23 | 1022.6 |
| 20260503194609 | 63 | 105 | 0.9 | 1.7 | 0.00 | 0.00 | 0.00 | 23 | 1023.0 |
| 20260503194103 | 62 | 251 | 0.9 | 0.9 | 0.00 | 0.00 | 0.00 | 25 | 1023.1 |
| 20260503193600 | 61 | 211 | 1.7 | 1.7 | 0.00 | 0.00 | 0.00 | 25 | 1023.3 |
| 20260503193055 | 62 | 224 | 5.2 | 6.1 | 0.00 | 0.00 | 0.00 | 26 | 1023.2 |
| 20260503192552 | 62 | 241 | 2.6 | 2.6 | 0.00 | 0.00 | 0.00 | 24 | 1023.3 |
| 20260503192048 | 64 | 221 | 3.5 | 4.3 | 0.00 | 0.00 | 0.00 | 25 | 1023.2 |
| 20260503191545 | 63 | 300 | 2.6 | 4.3 | 0.00 | 0.00 | 0.00 | 25 | 1023.3 |
| 20260503191042 | 63 | 313 | 0.9 | 1.7 | 0.00 | 0.00 | 0.00 | 24 | 1023.3 |
| 20260503190539 | 64 | 284 | 7.0 | 7.8 | 0.00 | 0.00 | 0.00 | 24 | 1023.3 |
| 20260503190037 | 63 | 260 | 4.3 | 5.2 | 0.00 | 0.00 | 0.00 | 25 | 1023.5 |
| 20260503185533 | 62 | 275 | 3.5 | 4.3 | 0.00 | 0.00 | 0.00 | 25 | 1024.0 |
| 20260503185033 | 61 | 68 | 1.7 | 1.7 | 0.00 | 0.00 | 0.00 | 25 | 1023.5 |
| 20260503184529 | 62 | 133 | 3.5 | 4.3 | 0.00 | 0.00 | 0.00 | 24 | 1023.8 |
| 20260503184026 | 62 | 238 | 3.5 | 4.3 | 0.00 | 0.00 | 0.00 | 28 | 1024.1 |
| 20260503183522 | 60 | 224 | 1.7 | 2.6 | 0.00 | 0.00 | 0.00 | 26 | 1024.1 |
| 20260503183019 | 60 | 222 | 5.2 | 7.0 | 0.00 | 0.00 | 0.00 | 27 | 1024.4 |
| 20260503182518 | 62 | 285 | 2.6 | 2.6 | 0.00 | 0.00 | 0.00 | 25 | 1024.2 |
| 20260503182015 | 62 | 107 | 3.5 | 4.3 | 0.00 | 0.00 | 0.00 | 25 | 1024.5 |
| 20260503181512 | 62 | 222 | 1.7 | 1.7 | 0.00 | 0.00 | 0.00 | 27 | 1024.5 |
| 20260503181008 | 61 | 213 | 2.6 | 2.6 | 0.00 | 0.00 | 0.00 | 27 | 1024.6 |
| 20260503180506 | 60 | 338 | 4.3 | 6.1 | 0.00 | 0.00 | 0.00 | 26 | 1024.4 |
| 20260503180003 | 60 | 353 | 3.5 | 4.3 | 0.00 | 0.00 | 0.00 | 26 | 1024.6 |
| 20260503175501 | 59 | 45 | 2.6 | 4.3 | 0.00 | 0.00 | 0.00 | 27 | 1024.7 |
| 20260503174956 | 59 | 225 | 0.9 | 1.7 | 0.00 | 0.00 | 0.00 | 28 | 1024.9 |
| 20260503174455 | 58 | 271 | 3.5 | 4.3 | 0.00 | 0.00 | 0.00 | 28 | 1024.9 |
| 20260503173950 | 58 | 6 | 4.3 | 6.1 | 0.00 | 0.00 | 0.00 | 27 | 1025.0 |
| 20260503173445 | 59 | 222 | 2.6 | 2.6 | 0.00 | 0.00 | 0.00 | 30 | 1025.1 |
| 20260503172943 | 58 | 216 | 0.9 | 0.9 | 0.00 | 0.00 | 0.00 | 29 | 1025.1 |
| 20260503172440 | 58 | 158 | 2.6 | 4.3 | 0.00 | 0.00 | 0.00 | 28 | 1025.4 |
| 20260503171937 | 58 | 222 | 0.9 | 1.7 | 0.00 | 0.00 | 0.00 | 31 | 1025.4 |
| 20260503171433 | 58 | 241 | 2.6 | 4.3 | 0.00 | 0.00 | 0.00 | 30 | 1025.4 |
| 20260503170931 | 58 | 234 | 4.3 | 6.1 | 0.00 | 0.00 | 0.00 | 29 | 1025.5 |
| 20260503170427 | 58 | 219 | 0.0 | 0.0 | 0.00 | 0.00 | 0.00 | 32 | 1025.5 |
| 20260503150814 | 51 | 262 | 3.5 | 5.2 | 0.00 | 0.00 | 0.00 | 39 | 1025.9 |
| 20260503150309 | 50 | 218 | 0.9 | 1.7 | 0.00 | 0.00 | 0.00 | 49 | 1026.0 |
| 20260503140234 | 42 | 225 | 0.0 | 0.0 | 0.00 | 0.00 | 0.00 | 61 | 1026.4 |
| 20260503131203 | 39 | 226 | 0.9 | 0.9 | 0.00 | 0.00 | 0.00 | 60 | 1026.1 |
| 20260503130701 | 37 | 195 | 0.9 | 0.9 | 0.00 | 0.00 | 0.00 | 58 | 1026.1 |
| 20260503130158 | 37 | 211 | 0.0 | 0.0 | 0.00 | 0.00 | 0.00 | 59 | 1026.0 |
| 20260503120118 | 35 | 222 | 0.0 | 0.0 | 0.00 | 0.00 | 0.00 | 62 | 1025.6 |
| 20260503110545 | 36 | 168 | 1.7 | 1.7 | 0.00 | 0.00 | 0.00 | 57 | 1025.4 |
| 20260503090432 | 36 | 217 | 0.0 | 0.0 | 0.00 | 0.00 | 0.00 | 61 | 1026.2 |
| 20260503081358 | 36 | 210 | 0.0 | 0.0 | 0.00 | 0.00 | 0.00 | 62 | 1026.4 |
| 20260503080855 | 35 | 200 | 0.0 | 0.0 | 0.00 | 0.00 | 0.00 | 62 | 1026.5 |
| 20260503080352 | 35 | 203 | 0.0 | 0.0 | 0.00 | 0.00 | 0.00 | 63 | 1026.5 |
| 20260503072829 | 35 | 231 | 0.0 | 0.0 | 0.00 | 0.00 | 0.00 | 60 | 1026.8 |
| 20260503072326 | 35 | 220 | 0.0 | 0.0 | 0.00 | 0.00 | 0.00 | 60 | 1027.1 |
| 20260503071822 | 35 | 176 | 0.9 | 0.9 | 0.00 | 0.00 | 0.00 | 59 | 1026.8 |
| 20260503071320 | 34 | 191 | 0.9 | 0.9 | 0.00 | 0.00 | 0.00 | 58 | 1026.6 |
| 20260503070815 | 34 | 190 | 0.9 | 0.9 | 0.00 | 0.00 | 0.00 | 58 | 1026.6 |
| 20260503070308 | 34 | 195 | 0.9 | 0.9 | 0.00 | 0.00 | 0.00 | 59 | 1026.9 |
| 20260503060232 | 35 | 218 | 0.0 | 0.0 | 0.00 | 0.00 | 0.00 | 52 | 1026.8 |
| 20260503054719 | 35 | 201 | 0.0 | 0.9 | 0.00 | 0.00 | 0.00 | 52 | 1026.6 |
| 20260503054216 | 36 | 213 | 0.0 | 0.0 | 0.00 | 0.00 | 0.00 | 51 | 1026.9 |
| 20260503053714 | 36 | 209 | 0.0 | 0.0 | 0.00 | 0.00 | 0.00 | 49 | 1027.1 |
| 20260503053213 | 36 | 208 | 0.0 | 0.0 | 0.00 | 0.00 | 0.00 | 46 | 1026.8 |
| 20260503052709 | 37 | 130 | 2.6 | 2.6 | 0.00 | 0.00 | 0.00 | 48 | 1026.6 |
| 20260503052206 | 36 | 183 | 0.9 | 0.9 | 0.00 | 0.00 | 0.00 | 50 | 1027.0 |
| 20260503051701 | 37 | 168 | 0.9 | 0.9 | 0.00 | 0.00 | 0.00 | 49 | 1027.0 |
| 20260503051159 | 38 | 226 | 0.9 | 0.9 | 0.00 | 0.00 | 0.00 | 47 | 1026.9 |
| 20260503050655 | 37 | 179 | 1.7 | 1.7 | 0.00 | 0.00 | 0.00 | 47 | 1026.9 |
| 20260503050152 | 38 | 219 | 0.9 | 1.7 | 0.00 | 0.00 | 0.00 | 46 | 1027.0 |
| 20260503045649 | 37 | 204 | 0.0 | 0.0 | 0.00 | 0.00 | 0.00 | 48 | 1027.1 |
| 20260503045146 | 37 | 220 | 0.0 | 0.0 | 0.00 | 0.00 | 0.00 | 47 | 1026.9 |
| 20260503044643 | 38 | 228 | 0.0 | 0.0 | 0.00 | 0.00 | 0.00 | 49 | 1026.9 |
| 20260503044141 | 38 | 175 | 1.7 | 1.7 | 0.00 | 0.00 | 0.00 | 47 | 1026.8 |
| 20260503043637 | 37 | 198 | 0.0 | 0.9 | 0.00 | 0.00 | 0.00 | 49 | 1026.8 |
| 20260503043134 | 38 | 222 | 0.0 | 0.0 | 0.00 | 0.00 | 0.00 | 49 | 1026.6 |
| 20260503042630 | 38 | 195 | 0.9 | 0.9 | 0.00 | 0.00 | 0.00 | 46 | 1026.9 |
| 20260503042126 | 38 | 228 | 0.0 | 0.0 | 0.00 | 0.00 | 0.00 | 46 | 1026.6 |
| 20260503041618 | 38 | 197 | 0.0 | 0.9 | 0.00 | 0.00 | 0.00 | 48 | 1026.5 |
| 20260503041115 | 38 | 199 | 0.0 | 0.0 | 0.00 | 0.00 | 0.00 | 49 | 1026.9 |
| 20260503040612 | 39 | 201 | 0.0 | 0.0 | 0.00 | 0.00 | 0.00 | 47 | 1026.5 |
| 20260503040109 | 39 | 205 | 0.0 | 0.0 | 0.00 | 0.00 | 0.00 | 48 | 1026.6 |
| 20260503035606 | 39 | 201 | 0.9 | 0.9 | 0.00 | 0.00 | 0.00 | 47 | 1026.8 |
| 20260503035103 | 39 | 201 | 0.0 | 0.9 | 0.00 | 0.00 | 0.00 | 47 | 1026.6 |
| 20260503034600 | 39 | 196 | 0.9 | 0.9 | 0.00 | 0.00 | 0.00 | 47 | 1027.0 |
| 20260503034058 | 40 | 222 | 0.0 | 0.0 | 0.00 | 0.00 | 0.00 | 45 | 1026.5 |
| 20260503033555 | 40 | 163 | 1.7 | 1.7 | 0.00 | 0.00 | 0.00 | 45 | 1026.2 |
| 20260503033053 | 41 | 222 | 0.0 | 0.0 | 0.00 | 0.00 | 0.00 | 45 | 1026.6 |
| 20260503032551 | 41 | 211 | 0.0 | 0.0 | 0.00 | 0.00 | 0.00 | 45 | 1026.8 |
| 20260503032049 | 41 | 202 | 0.9 | 0.9 | 0.00 | 0.00 | 0.00 | 44 | 1026.4 |
| 20260503031546 | 42 | 192 | 0.9 | 0.9 | 0.00 | 0.00 | 0.00 | 42 | 1026.5 |
| 20260503031044 | 42 | 210 | 0.0 | 0.0 | 0.00 | 0.00 | 0.00 | 41 | 1026.8 |
| 20260503030539 | 42 | 179 | 0.9 | 1.7 | 0.00 | 0.00 | 0.00 | 43 | 1026.8 |
| 20260503030037 | 42 | 207 | 0.0 | 0.0 | 0.00 | 0.00 | 0.00 | 43 | 1026.6 |
| 20260503025533 | 43 | 206 | 0.0 | 0.0 | 0.00 | 0.00 | 0.00 | 41 | 1026.5 |
| 20260503025031 | 43 | 194 | 0.0 | 0.9 | 0.00 | 0.00 | 0.00 | 44 | 1026.6 |
| 20260503024527 | 44 | 192 | 0.9 | 0.9 | 0.00 | 0.00 | 0.00 | 41 | 1026.6 |
| 20260503024024 | 45 | 210 | 0.0 | 0.0 | 0.00 | 0.00 | 0.00 | 40 | 1026.4 |
| 20260503023521 | 45 | 215 | 0.0 | 0.0 | 0.00 | 0.00 | 0.00 | 38 | 1026.5 |
| 20260503023018 | 46 | 209 | 0.0 | 0.0 | 0.00 | 0.00 | 0.00 | 38 | 1026.5 |
| 20260503022514 | 46 | 214 | 0.0 | 0.0 | 0.00 | 0.00 | 0.00 | 36 | 1026.4 |
| 20260503022009 | 46 | 214 | 0.0 | 0.0 | 0.00 | 0.00 | 0.00 | 36 | 1026.4 |
| 20260503021506 | 47 | 212 | 0.0 | 0.0 | 0.00 | 0.00 | 0.00 | 32 | 1026.5 |
| 20260503021003 | 48 | 201 | 0.9 | 0.9 | 0.00 | 0.00 | 0.00 | 32 | 1026.4 |
| 20260503020500 | 47 | 179 | 0.9 | 0.9 | 0.00 | 0.00 | 0.00 | 32 | 1026.2 |
| 20260503015957 | 48 | 220 | 0.0 | 0.0 | 0.00 | 0.00 | 0.00 | 32 | 1026.4 |
| 20260503015454 | 48 | 213 | 0.0 | 0.0 | 0.00 | 0.00 | 0.00 | 31 | 1026.1 |
| 20260503014950 | 49 | 201 | 0.9 | 0.9 | 0.00 | 0.00 | 0.00 | 33 | 1026.0 |
| 20260503014447 | 50 | 221 | 0.0 | 0.0 | 0.00 | 0.00 | 0.00 | 34 | 1025.9 |
| 20260503013945 | 51 | 221 | 0.0 | 0.0 | 0.00 | 0.00 | 0.00 | 30 | 1026.0 |
| 20260503013442 | 52 | 215 | 0.0 | 0.0 | 0.00 | 0.00 | 0.00 | 31 | 1026.1 |
| 20260503012939 | 53 | 218 | 0.0 | 0.0 | 0.00 | 0.00 | 0.00 | 27 | 1026.0 |
| 20260503012437 | 54 | 190 | 0.9 | 0.9 | 0.00 | 0.00 | 0.00 | 24 | 1025.9 |
| 20260503011933 | 55 | 149 | 1.7 | 1.7 | 0.00 | 0.00 | 0.00 | 25 | 1025.9 |
| 20260503011430 | 56 | 224 | 0.0 | 0.0 | 0.00 | 0.00 | 0.00 | 23 | 1025.5 |
| 20260503010927 | 57 | 315 | 2.6 | 2.6 | 0.00 | 0.00 | 0.00 | 23 | 1025.5 |
| 20260503010424 | 57 | 155 | 0.9 | 1.7 | 0.00 | 0.00 | 0.00 | 24 | 1025.4 |
| 20260503005921 | 57 | 232 | 0.0 | 0.0 | 0.00 | 0.00 | 0.00 | 23 | 1025.4 |
| 20260503005418 | 58 | 0 | 2.6 | 2.6 | 0.00 | 0.00 | 0.00 | 23 | 1025.5 |
| 20260503004915 | 59 | 359 | 1.7 | 1.7 | 0.00 | 0.00 | 0.00 | 23 | 1025.4 |
| 20260503004412 | 60 | 31 | 1.7 | 2.6 | 0.00 | 0.00 | 0.00 | 23 | 1025.6 |
| 20260503003909 | 60 | 164 | 3.5 | 4.3 | 0.00 | 0.00 | 0.00 | 22 | 1025.5 |
| 20260503003405 | 60 | 231 | 0.0 | 0.0 | 0.00 | 0.00 | 0.00 | 22 | 1025.5 |
| 20260503002903 | 60 | 203 | 0.9 | 1.7 | 0.00 | 0.00 | 0.00 | 21 | 1025.4 |
| 20260503002400 | 59 | 205 | 1.7 | 1.7 | 0.00 | 0.00 | 0.00 | 21 | 1025.6 |
| 20260503001856 | 60 | 6 | 6.1 | 7.8 | 0.00 | 0.00 | 0.00 | 20 | 1025.9 |
| 20260503001353 | 59 | 156 | 0.9 | 1.7 | 0.00 | 0.00 | 0.00 | 21 | 1025.5 |
| 20260503000851 | 60 | 154 | 1.7 | 1.7 | 0.00 | 0.00 | 0.00 | 21 | 1025.5 |
| 20260503000348 | 59 | 172 | 2.6 | 2.6 | 0.00 | 0.00 | 0.00 | 22 | 1025.5 |